Location: Church Tower
(37.7144°N, 119.6316°W)
Time: 19:19:42
(UTC+00:00)

Cosmos 1025 Rocket - Pass Details

Date: 15 November 2025
Orbit: 586 x 610 km, 82.5° (Epoch: 08 December)

Event Time Altitude Azimuth Distance (km) Brightness Sun altitude
Rises 13:38:45 0° 186° (S) 2,853 6.6 -12.1°
Reaches altitude 10° 13:40:57 10° 186° (S) 1,955 5.7 -11.7°
Maximum altitude 13:45:17 89° 266° (W) 616 3.0 -10.9°
Drops below altitude 10° 13:49:40 10° 7° (N) 1,972 5.6 -10.0°
Sets 13:51:53 0° 7° (N) 2,879 6.4 -9.6°
